Weather History for KSNY - January, 2013

Change the Weather History Date:

Thursday, January 3, 2013

  Actual Average Record
Temperature  
Mean Temperature 15 °F 29 °F  
Max Temperature 32 °F 42 °F 64 °F (2003)
Min Temperature -2 °F 16 °F -20 °F (1974)
Degree Days  
Heating Degree Days 50 36  
Month to date heating degree days 136 108  
Since 1 July heating degree days 2692 2655  
Cooling Degree Days 0 0  
Month to date cooling degree days 0 0  
Year to date cooling degree days 0 0  
Moisture  
Dew Point 7 °F    
Average Humidity 63    
Maximum Humidity 87    
Minimum Humidity 39    
Precipitation  
Precipitation T in 0.00 in 0.48 in (1949)
Month to date precipitation T 0.02  
Year to date precipitation T 0.02  
Sea Level Pressure  
Sea Level Pressure 30.37 in    
Wind  
Wind Speed 10 mph (WNW)    
Max Wind Speed 20 mph    
Max Gust Speed 24 mph    
Visibility 9 miles    
Events Snow    
T = Trace of Precipitation, MM = Missing Value Source: NWS Daily Summary

Daily Weather History Graph

Daily Weather History Graph

Search for Another Location

Airport or City:

Trip Planner

Search our weather history database for the weather conditions in past years. The results will help you decide how hot, cold, wet, or windy it might be!

Date:

Astronomy

Jan. 03, 2013 Rise Set
Actual Time 7:17 AM MST 4:36 PM MST
Civil Twilight 6:46 AM MST 5:07 PM MST
Nautical Twilight 6:11 AM MST 5:41 PM MST
Astronomical Twilight 5:38 AM MST 6:14 PM MST
Moon 11:17 PM MST 10:26 AM MST
Length of Visible Light 10h 20m
Length of Day
9h 18m
Waning Gibbous, 65% of the Moon is Illuminated
Jan 3
Waning Gibbous
Jan 4
Last Quarter
Jan 11
New
Jan 18
First Quarter
Jan 26
Full

Hourly Weather History & Observations

Time (MST) Temp. Windchill Dew Point Humidity Pressure Visibility Wind Dir Wind Speed Gust Speed Precip Events Conditions
12:53 AM 19.9 °F 5.7 °F 12.0 °F 71% 30.40 in 10.0 mi NNW 16.1 mph - N/A   Overcast
1:53 AM 19.9 °F 6.2 °F 12.0 °F 71% 30.41 in 10.0 mi North 15.0 mph - N/A   Overcast
2:53 AM 19.0 °F 10.0 °F 12.9 °F 77% 30.42 in 9.0 mi NW 6.9 mph - N/A   Overcast
3:06 AM 19.4 °F 10.4 °F 12.2 °F 74% 30.28 in 2.5 mi WNW 6.9 mph - 0.00 in Snow Light Snow
3:16 AM 19.4 °F 11.5 °F 14.0 °F 80% 30.28 in 3.0 mi NW 5.8 mph - 0.00 in Snow Light Snow
3:53 AM 19.0 °F 10.0 °F 14.0 °F 81% 30.42 in 10.0 mi NW 6.9 mph - 0.00 in   Overcast
4:17 AM 19.4 °F 7.2 °F 12.2 °F 74% 30.27 in 10.0 mi NNW 11.5 mph - N/A   Overcast
5:53 AM 5.0 °F -6.9 °F 1.0 °F 84% 30.45 in 10.0 mi WNW 6.9 mph - N/A   Clear
6:53 AM 1.9 °F -10.6 °F -4.0 °F 76% 30.46 in 10.0 mi West 6.9 mph - N/A   Clear
7:53 AM 1.0 °F -14.0 °F -5.1 °F 75% 30.47 in 10.0 mi West 9.2 mph - N/A   Clear
8:53 AM 10.0 °F 0.4 °F 1.0 °F 67% 30.45 in 10.0 mi West 5.8 mph - N/A   Clear
9:53 AM 18.0 °F 7.7 °F 5.0 °F 57% 30.43 in 10.0 mi WNW 8.1 mph - N/A   Clear
10:53 AM 24.1 °F 13.1 °F 10.0 °F 55% 30.39 in 10.0 mi WNW 11.5 mph - N/A   Clear
11:53 AM 28.9 °F 18.6 °F 12.0 °F 49% 30.32 in 10.0 mi NW 12.7 mph - N/A   Clear
12:53 PM 30.9 °F 20.2 °F 10.9 °F 43% 30.29 in 10.0 mi NW 15.0 mph - N/A   Clear
1:53 PM 32.0 °F 23.0 °F 10.9 °F 42% 30.29 in 10.0 mi NW 11.5 mph - N/A   Clear
2:53 PM 32.0 °F 25.6 °F 12.0 °F 44% 30.30 in 10.0 mi NW 6.9 mph - N/A   Clear
3:53 PM 28.0 °F 22.8 °F 12.0 °F 51% 30.31 in 10.0 mi WNW 4.6 mph - N/A   Clear
5:53 PM 9.0 °F -0.9 °F 3.0 °F 77% 30.43 in 10.0 mi West 5.8 mph - N/A   Clear
6:53 PM 10.0 °F -2.9 °F 3.9 °F 76% 30.45 in 10.0 mi West 9.2 mph - N/A   Clear
7:53 PM 16.0 °F 2.3 °F 7.0 °F 68% 30.42 in 10.0 mi WNW 12.7 mph - N/A   Clear
8:53 PM 15.1 °F 1.1 °F 5.0 °F 64% 30.38 in 10.0 mi WNW 12.7 mph - N/A   Clear
9:53 PM 15.1 °F - 5.0 °F 64% 30.36 in 10.0 mi North - - N/A   Clear
10:53 PM 14.0 °F 2.9 °F 3.9 °F 64% 30.35 in 10.0 mi West 8.1 mph - N/A   Clear
11:53 PM 10.0 °F -1.9 °F 1.9 °F 70% 30.33 in 10.0 mi West 8.1 mph - N/A   Clear